DW7361 Weather Reports


time (UTC)temp
C
wind
direction
speed
KPH
gust
KPH
rain 1hr
cm
rain 24hr
cm
rain mn
cm
humidity
%
barometer
mb
20260503200009 16 278 3.2 8.0 0.00 0.00 0.00 36 1011.9
20260503194507 15 290 3.2 14.5 0.00 0.00 0.00 35 1012.1
20260503193007 16 337 4.8 11.3 0.00 0.00 0.00 35 1012.4
20260503191503 15 315 1.6 14.5 0.00 0.00 0.00 35 1012.3
20260503190004 15 276 3.2 8.0 0.00 0.00 0.00 35 1012.4
20260503184502 15 268 3.2 12.9 0.00 0.00 0.00 34 1012.7
20260503183000 14 6 3.2 12.9 0.00 0.00 0.00 34 1012.9
20260503181600 15 318 1.6 11.3 0.00 0.00 0.00 38 1012.8
20260503174558 14 288 1.6 11.3 0.00 0.00 0.00 38 1012.8
20260503173113 14 285 3.2 14.5 0.00 0.00 0.00 37 1012.9
20260503171555 14 295 1.6 11.3 0.00 0.00 0.00 38 1013.1
20260503100109 6 257 0.0 0.0 0.00 0.00 0.00 61 1012.2
20260503081556 5 287 0.0 1.6 0.00 0.00 0.00 63 1011.1
20260503071557 4 142 0.0 0.0 0.00 0.00 0.00 68 1010.8
20260503054538 7 301 0.0 1.6 0.00 0.00 0.00 67 1011.1
20260503053028 7 302 0.0 1.6 0.00 0.00 0.00 67 1011.1
20260503051525 7 231 0.0 0.0 0.00 0.00 0.00 66 1011.2
20260503050022 8 231 0.0 0.0 0.00 0.00 0.00 64 1011.3
20260503044522 8 298 0.0 4.8 0.00 0.00 0.00 63 1011.5
20260503043019 8 252 0.0 0.0 0.00 0.00 0.00 63 1011.6
20260503041519 8 287 0.0 1.6 0.00 0.00 0.00 62 1011.7
20260503040016 8 300 0.0 1.6 0.00 0.00 0.00 62 1011.7
20260503034512 8 276 0.0 3.2 0.00 0.00 0.00 63 1011.8
20260503033007 8 269 0.0 1.6 0.00 0.00 0.00 64 1011.8
20260503031502 7 295 0.0 0.0 0.00 0.00 0.00 65 1011.8
20260503030058 7 295 0.0 0.0 0.00 0.00 0.00 67 1011.8
20260503024602 7 295 0.0 0.0 0.00 0.00 0.00 65 1011.8
20260503023050 8 295 0.0 0.0 0.00 0.00 0.00 64 1011.9
20260503021549 8 295 0.0 0.0 0.00 0.00 0.00 59 1011.9
20260503020049 8 295 0.0 0.0 0.00 0.00 0.00 57 1012.0
20260503014558 9 295 0.0 0.0 0.00 0.00 0.00 56 1011.8
20260503013035 10 295 0.0 0.0 0.00 0.00 0.00 54 1011.7
20260503011530 10 288 0.0 0.0 0.00 0.00 0.00 52 1011.7
20260503010022 11 283 0.0 4.8 0.00 0.00 0.00 53 1011.5
20260503004525 11 309 0.0 0.0 0.00 0.00 0.00 51 1011.3
20260503003014 11 309 0.0 3.2 0.00 0.00 0.00 49 1011.1
20260503001509 11 139 0.0 1.6 0.00 0.00 0.00 50 1011.1
20260503000004 11 308 0.0 0.0 0.00 0.00 0.00 48 1011.0
20260502234601 12 315 0.0 4.8 0.00 0.00 0.00 44 1010.8
20260502233056 12 340 0.0 4.8 0.00 0.00 0.00 44 1010.7
20260502231653 12 325 0.0 3.2 0.00 0.00 0.00 44 1010.6
20260502230048 13 256 0.0 4.8 0.00 0.00 0.00 42 1010.8
20260502224548 13 316 0.0 8.0 0.00 0.00 0.00 40 1010.7
20260502223041 15 271 0.0 6.4 0.00 0.00 0.00 41 1010.5
20260502221534 15 284 1.6 4.8 0.00 0.00 0.00 37 1010.5
20260502220029 14 290 0.0 6.4 0.00 0.00 0.00 39 1010.4
20260502214524 13 281 0.0 8.0 0.00 0.00 0.00 41 1010.5
20260502213020 15 76 1.6 8.0 0.00 0.00 0.00 40 1010.4
20260502211531 15 93 0.0 3.2 0.00 0.00 0.00 42 1010.3
20260502210016 15 291 0.0 4.8 0.00 0.00 0.00 39 1010.1
20260502204507 15 264 0.0 8.0 0.00 0.00 0.00 41 1009.9
20260502203002 15 292 0.0 4.8 0.00 0.00 0.00 43 1010.1
20260502201605 16 255 0.0 1.6 0.00 0.00 0.00 42 1010.1